Location: Kershaw
(34.5481°N, 80.5823°W)
Time: 11:15:03
(UTC+00:00)

Explorer 7 - Pass Details

Date: 07 October 2022
Orbit: 481 x 665 km, 50.3° (Epoch: 26 November)

Event Time Altitude Azimuth Distance (km) Brightness Sun altitude
Rises 13:02:26 0° 213° (SSW) 2,927 10.4 19.3°
Reaches altitude 10° 13:04:47 10° 208° (SSW) 2,041 9.7 19.7°
Maximum altitude 13:09:21 50° 134° (SE) 843 8.9 20.6°
Drops below altitude 10° 13:14:01 10° 59° (ENE) 2,088 10.4 21.5°
Sets 13:16:26 0° 55° (NE) 3,001 11.0 21.9°
